◎LINEAR新彗星  P/2004 FY140 (LINEAR)    [From JSGA Web News]



  LINEARサーベイで2004年3月27日におとめ座に発見された18等級の小惑星には,

2004 FY140の仮符号が与えられた.この小惑星は,2004年7月12日まで約4ヶ月の

間,観測され,木星の軌道近くを動く,小惑星であることがわかった.月惑星研究

所のハーゲンローザ(C. Hergenrother, LPL)は,2004年5月19日と20日に得られ

た CCDフレームを精査した結果,そのイメージは,拡散していることが判明した.

なお,これらのフレームからの精測位置は報告されていない.この確認のために,

2005年7月5日と6日にカテリナ観測所の1.54-m反射で,この天体を捕らえること

を試みた.このとき,天体の光度は,約19等級であるものと推測されたが,極限等

級が22等のフレーム上には,その姿が見られなかったという.しかし,2004年5月

の形状確認から,この小惑星は,彗星として再登録された.



  次の軌道は2004年3月27日から7月12日までに行なわれた52個の観測から決定し

たもの.平均残差は0".42.参考のために,位置予報が最後にある.



    P/2004 FY140 (LINEAR)

Epoch 2004 Aug. 23.0 TT = JDT 2453240.5  

T 2004 Aug. 7.09313 TT                                  Nakano

q   4.1060814            (2000.0)            P               Q

n   0.08958190     Peri.  239.79059     -0.89019244     +0.45514248

a   4.9467793      Node   327.27145     -0.40419389     -0.80933436

e   0.1699485      Incl.    2.12719     -0.21020159     -0.37124550

P  11.00 (+/- 0.10 day)

From 52 observations 2004 Mar. 27-July 12, mean residual 0".42.



  なお,この彗星の過去と未来軌道は次のとおりで,木星に1966年5月に0.23 AU,

2001年11月に0.21 AUまで接近し,現在の軌道となった.2050年までに,今後大き

な接近はないが,2139年と2172年には,再び,木星に0.40 AU以下に接近するだろ

う.



  T/TT           q (AU)     e            P      Peri.     Node      Inc.      Ep

och      a (AU)

  1901  6 10.65  5.2312881  0.4889715   32.8     33.3933   89.6903    5.9374  19

010625  10.236783

  1934  4  4.15  5.2479844  0.4896070   33.0     33.3548   89.5937    5.9304  19

340324  10.282242

  1985  3 14.28  4.8377292  0.2867216   17.66    66.5415   74.3472    3.5703  19

850224   6.782386

  2004  8  7.09  4.1060814  0.1699485   11.00   239.7906  327.2714    2.1272  20

040823   4.946779

  2015  7 24.84  4.0592860  0.1702740   10.82   241.9647  326.7856    2.1370  20

150806   4.892321

  2026  5 27.77  4.0820754  0.1692665   10.89   241.9312  326.7915    2.1339  20

260609   4.913821

  2037  5  7.27  4.1219876  0.1674786   11.02   241.7773  326.7411    2.1275  20

370522   4.951209

  2048  6  5.17  4.1515447  0.1669343   11.12   241.9286  326.6412    2.1206  20

480613   4.983454



Residuals in seconds of arc 

2004/                     040416 704  0.5+  0.2+    040423 691  0.1+  0.1+  

040327 704  0.1+  0.6-    040416 704  0.3+  1.1+    040423 691  0.1+  0.1+  

040327 704  0.6+  0.5-    040416 704  0.0   0.0     040423 691  0.2+  0.0   

040327 704  0.1+  0.4-    040416 704  0.1-  0.5+    040426 699  0.4-  0.3+  

040327 704  0.3+  0.4-    040420 704  0.7+  0.2-    040426 699  0.8-  0.3-  

040327 704  0.4-  0.3+    040420 704  0.6-  0.3+    040426 699  0.2-  0.1+  

040331 704  0.9-  0.0     040420 704  0.4+  0.5+    040426 699  0.0   0.6+  

040331 704  0.1+  0.3+    040420 704  0.1+  0.5+    040604 413  0.2-  0.3-  

040331 704  0.3-  0.4+    040420 704  0.2-  1.0+    040604 413  0.3+  0.4-  

040331 704  0.3-  0.3+    040421 704  0.6+  0.0     040605 413  0.2-  0.0   

040331 704  0.6-  0.4+    040421 704  0.8+  0.0     040605 413  0.1-  0.0   

040402 608  0.6+  0.4-    040421 704  0.2+  0.1+    040607 413  0.0   0.0   

040402 608  0.1+  0.2-    040421 704  0.3+  0.2-    040607 413  0.1-  0.0   

040402 608  0.5-  0.4-    040421 704  0.1-  0.3+    040712 E12  0.3-  0.4-  

040403 608  0.1+  0.7-    040422 703  0.4-  0.8-    040712 E12  0.1-  0.1-  

040403 608  0.1+  0.7-    040422 703  0.7-  0.9-    040712 E12  0.1-  0.1+  

040403 608  0.5-  0.0     040422 703  0.0   0.7-    040712 E12  0.5+  0.2+  

040416 704  0.7+  0.8+    040422 703  0.4+  0.4+                            



2005/2006    α  (2000) δ      △      r      Elong. Phase    m1 

  0h TT     h  m       。  ,        AU      AU      。      。      等

Feb.  9   16 06.42  -22 58.0    4.279   4.157    76.3   13.3   18.3

     19   16 13.20  -23 20.3    4.134   4.162    84.8   13.7   18.2

Mar.  1   16 18.67  -23 38.9    3.988   4.168    93.5   13.7   18.2

     11   16 22.69  -23 53.7    3.843   4.174   102.6   13.4   18.1

     21   16 25.10  -24 04.7    3.704   4.180   112.0   12.8   18.0

     31   16 25.81  -24 11.9    3.575   4.186   121.7   11.7   17.9

Apr. 10   16 24.81  -24 15.0    3.459   4.193   131.7   10.3   17.9

     20   16 22.15  -24 13.7    3.362   4.200   142.1    8.5   17.8

     30   16 18.04  -24 07.9    3.287   4.207   152.7    6.3   17.8

May  10   16 12.79  -23 57.7    3.237   4.215   163.5    3.9   17.7

     20   16 06.84  -23 43.6    3.215   4.222   174.1    1.4   17.7

     30   16 00.72  -23 26.5    3.221   4.230   173.6    1.5   17.7

June  9   15 54.93  -23 08.0    3.257   4.238   163.0    4.0   17.8

     19   15 49.96  -22 49.9    3.320   4.247   152.4    6.4   17.8

     29   15 46.17  -22 33.7    3.408   4.255   142.0    8.5   17.9

July  9   15 43.81  -22 21.0    3.517   4.264   131.9   10.2   18.0

     19   15 43.02  -22 12.6    3.644   4.273   122.2   11.6   18.0

     29   15 43.81  -22 09.2    3.785   4.282   112.8   12.6   18.1

Aug.  8   15 46.14  -22 10.6    3.936   4.291   103.8   13.3   18.2

     18   15 49.93  -22 16.5    4.092   4.301    95.1   13.6   18.3

     28   15 55.06  -22 26.4    4.251   4.311    86.6   13.5   18.4

Sept. 7   16 01.40  -22 39.5    4.409   4.321    78.4   13.2   18.5

     17   16 08.84  -22 54.9    4.563   4.331    70.4   12.6   18.6

     27   16 17.24  -23 11.8    4.710   4.341    62.6   11.8   18.6

Oct.  7   16 26.48  -23 29.3    4.848   4.351    54.9   10.8   18.7

 

日本スペースガード協会            (c) Copyright JSGA 2005           中野 主一

         **** Don't distribute anyone except personal use only ****

                (C) Copyright 2005 OAA/ComputingSection

write mail from CFAD0::NAKANO on 2005-09-13 00:43:44(JST).

 





戻ります。